Location: Pettit
(39.0209°N, 79.7181°W)
Time: 05:28:18
(UTC+00:00)

ISS - Pass Details

Date: 20 April 2026
Orbit: 414 x 424 km, 51.6° (Epoch: 15 May)

Event Time Altitude Azimuth Distance (km) Brightness Sun altitude
Exits shadow 08:07:01 16° 101° (E) 1,181 -1.1 -25.9°
Drops below altitude 10° 08:08:14 10° 83° (E) 1,496 -0.3 -25.7°
Sets 08:10:43 0° 65° (ENE) 2,367 1.3 -25.4°
